DAL1215 KIAD-KBOS

Flight info

Callsign DAL1215
Flight time 1h 10m
Altitude 37000
Route JCOBY4 SWANN DCT BROSS Q419 JFK ROBUC3
Aircraft B737/M-V/N

Departure

Time 2026-05-07 00:35
Airport Washington Dulles International Airport (KIAD)

Arrival

Time 2026-05-07 01:46
Airport Boston Logan International Airport (KBOS)
Time Latitude Longitude Altitude Speed Heading
2026-05-07 00:14 38.94817 -77.45378 293 ft 0 kts 340°
2026-05-07 00:25 38.94810 -77.45375 289 ft 4 kts 337°
2026-05-07 00:25 38.94785 -77.45365 299 ft 4 kts 344°
2026-05-07 00:25 38.94759 -77.45355 297 ft 4 kts 334°
2026-05-07 00:26 38.94739 -77.45336 296 ft 4 kts 292°
2026-05-07 00:26 38.94736 -77.45325 299 ft 1 kts 269°
2026-05-07 00:29 38.94736 -77.45376 293 ft 13 kts 269°
2026-05-07 00:29 38.94736 -77.45518 292 ft 17 kts 272°
2026-05-07 00:30 38.94450 -77.45610 296 ft 15 kts 181°
2026-05-07 00:30 38.94348 -77.45612 296 ft 14 kts 180°
2026-05-07 00:30 38.94253 -77.45612 299 ft 13 kts 181°
2026-05-07 00:30 38.94163 -77.45615 299 ft 13 kts 181°
2026-05-07 00:31 38.94079 -77.45616 300 ft 12 kts 180°
2026-05-07 00:31 38.94005 -77.45616 301 ft 10 kts 181°
2026-05-07 00:31 38.93938 -77.45618 300 ft 9 kts 179°
2026-05-07 00:31 38.93903 -77.45617 298 ft 0 kts 179°
2026-05-07 00:32 38.93894 -77.45617 298 ft 6 kts 180°
2026-05-07 00:32 38.93803 -77.45618 295 ft 17 kts 181°
2026-05-07 00:32 38.93702 -77.45626 297 ft 4 kts 169°
2026-05-07 00:33 38.93682 -77.45582 295 ft 7 kts 121°
2026-05-07 00:33 38.93641 -77.45519 297 ft 12 kts 135°
2026-05-07 00:33 38.93564 -77.45509 297 ft 12 kts 198°
2026-05-07 00:33 38.93473 -77.45552 296 ft 10 kts 200°
2026-05-07 00:34 38.93463 -77.45557 295 ft 1 kts 201°
2026-05-07 00:34 38.93419 -77.45580 293 ft 10 kts 208°
2026-05-07 00:34 38.93385 -77.45647 296 ft 9 kts 269°
2026-05-07 00:34 38.93410 -77.45757 296 ft 32 kts 290°
2026-05-07 00:35 38.93601 -77.46406 306 ft 120 kts 291°
2026-05-07 00:35 38.93972 -77.47709 413 ft 184 kts 289°
2026-05-07 00:35 38.94443 -77.49370 1114 ft 207 kts 294°
2026-05-07 00:35 38.95178 -77.50808 2432 ft 184 kts 310°
2026-05-07 00:36 38.96046 -77.52145 2907 ft 206 kts 309°
2026-05-07 00:36 38.97039 -77.53664 2996 ft 241 kts 309°
2026-05-07 00:36 38.98224 -77.55290 2988 ft 253 kts 324°
2026-05-07 00:36 38.99910 -77.55924 3361 ft 263 kts
2026-05-07 00:37 39.01697 -77.55274 4165 ft 275 kts 25°
2026-05-07 00:37 39.03239 -77.53746 4914 ft 287 kts 47°
2026-05-07 00:37 39.04486 -77.51689 5676 ft 296 kts 54°
2026-05-07 00:37 39.05666 -77.49471 6424 ft 305 kts 54°
2026-05-07 00:38 39.06865 -77.47187 7173 ft 310 kts 54°
2026-05-07 00:38 39.08092 -77.44882 7987 ft 313 kts 53°
2026-05-07 00:38 39.09346 -77.42561 8762 ft 319 kts 53°
2026-05-07 00:38 39.10639 -77.40199 9530 ft 325 kts 52°
2026-05-07 00:39 39.11941 -77.37838 9942 ft 329 kts 52°
2026-05-07 00:39 39.13277 -77.35417 10226 ft 337 kts 52°
2026-05-07 00:39 39.14662 -77.32822 10374 ft 365 kts 59°
2026-05-07 00:39 39.15502 -77.29673 10844 ft 377 kts 85°
2026-05-07 00:40 39.15326 -77.26336 11647 ft 373 kts 107°
2026-05-07 00:40 39.14670 -77.23105 12420 ft 376 kts 108°
2026-05-07 00:40 39.14053 -77.19790 13039 ft 385 kts 106°
2026-05-07 00:40 39.13469 -77.16400 13733 ft 390 kts 105°
2026-05-07 00:41 39.12918 -77.12959 14375 ft 394 kts 104°
2026-05-07 00:41 39.12375 -77.09470 14972 ft 400 kts 104°
2026-05-07 00:41 39.11819 -77.05922 15570 ft 406 kts 104°
2026-05-07 00:41 39.11247 -77.02332 16151 ft 412 kts 104°
2026-05-07 00:42 39.10743 -76.98671 16709 ft 420 kts 97°
2026-05-07 00:42 39.10686 -76.94931 17279 ft 426 kts 88°
2026-05-07 00:42 39.10827 -76.91098 17932 ft 430 kts 87°
2026-05-07 00:42 39.10964 -76.87228 18451 ft 436 kts 87°
2026-05-07 00:43 39.11088 -76.83300 18873 ft 442 kts 88°
2026-05-07 00:43 39.11199 -76.79329 18868 ft 445 kts 88°
2026-05-07 00:43 39.11300 -76.75358 18898 ft 442 kts 88°
2026-05-07 00:43 39.11395 -76.71379 18997 ft 448 kts 88°
2026-05-07 00:44 39.11490 -76.67346 19480 ft 451 kts 88°
2026-05-07 00:44 39.11584 -76.63303 20113 ft 453 kts 88°
2026-05-07 00:44 39.11679 -76.59232 20601 ft 458 kts 88°
2026-05-07 00:44 39.11774 -76.55100 21043 ft 464 kts 88°
2026-05-07 00:45 39.11911 -76.50931 21490 ft 470 kts 84°
2026-05-07 00:45 39.12324 -76.46733 21974 ft 473 kts 80°
2026-05-07 00:45 39.12841 -76.42532 22482 ft 477 kts 79°
2026-05-07 00:45 39.13360 -76.38343 22948 ft 482 kts 79°
2026-05-07 00:46 39.13868 -76.34049 23370 ft 487 kts 80°
2026-05-07 00:46 39.14359 -76.29703 23746 ft 492 kts 81°
2026-05-07 00:46 39.14839 -76.25330 24133 ft 495 kts 81°
2026-05-07 00:46 39.15322 -76.20924 24527 ft 498 kts 80°
2026-05-07 00:47 39.15829 -76.16491 24902 ft 502 kts 80°
2026-05-07 00:47 39.16351 -76.12027 25263 ft 506 kts 80°
2026-05-07 00:47 39.16877 -76.07526 25628 ft 510 kts 80°
2026-05-07 00:47 39.17403 -76.02996 25982 ft 513 kts 80°
2026-05-07 00:48 39.17928 -75.98426 26342 ft 516 kts 80°
2026-05-07 00:48 39.18526 -75.93846 26669 ft 519 kts 73°
2026-05-07 00:48 39.19755 -75.89501 26946 ft 514 kts 56°
2026-05-07 00:48 39.21638 -75.85645 27365 ft 503 kts 44°
2026-05-07 00:49 39.24000 -75.82410 27703 ft 489 kts 30°
2026-05-07 00:49 39.26646 -75.79654 28076 ft 489 kts 28°
2026-05-07 00:49 39.29296 -75.76879 28403 ft 493 kts 28°
2026-05-07 00:49 39.31954 -75.74032 28696 ft 498 kts 29°
2026-05-07 00:50 39.34607 -75.71136 29023 ft 502 kts 30°
2026-05-07 00:50 39.37267 -75.68201 29364 ft 504 kts 30°
2026-05-07 00:50 39.39941 -75.65243 29695 ft 507 kts 30°
2026-05-07 00:50 39.42599 -75.62309 29983 ft 509 kts 30°
2026-05-07 00:51 39.45299 -75.59335 30243 ft 512 kts 29°
2026-05-07 00:51 39.48017 -75.56350 30513 ft 513 kts 29°
2026-05-07 00:51 39.50752 -75.53347 30787 ft 515 kts 29°
2026-05-07 00:51 39.53490 -75.50336 31044 ft 517 kts 29°
2026-05-07 00:52 39.56240 -75.47305 31275 ft 520 kts 29°
2026-05-07 00:52 39.59008 -75.44251 31499 ft 522 kts 29°
2026-05-07 00:52 39.61774 -75.41194 31790 ft 523 kts 29°
2026-05-07 00:52 39.64539 -75.38136 32126 ft 522 kts 29°
2026-05-07 00:53 39.67297 -75.35085 32474 ft 521 kts 29°
2026-05-07 00:53 39.70057 -75.32032 32778 ft 521 kts 28°
2026-05-07 00:53 39.72820 -75.28974 33057 ft 522 kts 28°
2026-05-07 00:53 39.75577 -75.25918 33350 ft 522 kts 28°
2026-05-07 00:54 39.78335 -75.22848 33679 ft 522 kts 29°
2026-05-07 00:54 39.80978 -75.19548 33964 ft 533 kts 37°
2026-05-07 00:54 39.83430 -75.15887 34254 ft 537 kts 39°
2026-05-07 00:54 39.85826 -75.12162 34561 ft 536 kts 39°
2026-05-07 00:55 39.88183 -75.08506 34841 ft 534 kts 38°
2026-05-07 00:55 39.90620 -75.04794 35112 ft 532 kts 37°
2026-05-07 00:55 39.93012 -75.01209 35352 ft 531 kts 37°
2026-05-07 00:55 39.95444 -74.97578 35602 ft 530 kts 37°
2026-05-07 00:56 39.97816 -74.93879 35831 ft 537 kts 42°
2026-05-07 00:56 39.99962 -74.89861 36077 ft 543 kts 46°
2026-05-07 00:56 40.02016 -74.85726 36390 ft 542 kts 47°
2026-05-07 00:56 40.04042 -74.81579 36634 ft 541 kts 47°
2026-05-07 00:57 40.06079 -74.77446 36808 ft 541 kts 46°
2026-05-07 00:57 40.08140 -74.73327 36868 ft 543 kts 46°
2026-05-07 00:57 40.12318 -74.65091 36860 ft 543 kts 46°
2026-05-07 00:58 40.16467 -74.56901 36840 ft 538 kts 46°
2026-05-07 00:58 40.20813 -74.49033 36781 ft 524 kts 35°
2026-05-07 00:59 40.26157 -74.42968 36945 ft 504 kts 24°
2026-05-07 00:59 40.28930 -74.40122 36873 ft 508 kts 24°
2026-05-07 01:00 40.34442 -74.34324 36889 ft 507 kts 25°
2026-05-07 01:00 40.39859 -74.28511 36854 ft 505 kts 25°
2026-05-07 01:01 40.45290 -74.22670 36834 ft 504 kts 25°
2026-05-07 01:01 40.50707 -74.16842 36871 ft 505 kts 27°
2026-05-07 01:01 40.53272 -74.13558 36750 ft 529 kts 40°
2026-05-07 01:02 40.55384 -74.09515 36800 ft 543 kts 52°
2026-05-07 01:02 40.57037 -74.04981 36251 ft 558 kts 64°
2026-05-07 01:02 40.58162 -74.00049 35781 ft 561 kts 70°
2026-05-07 01:02 40.59161 -73.95121 35240 ft 558 kts 69°
2026-05-07 01:03 40.60252 -73.90179 34653 ft 557 kts 68°
2026-05-07 01:03 40.61370 -73.85353 34296 ft 551 kts 68°
2026-05-07 01:03 40.62514 -73.80528 33858 ft 545 kts 65°
2026-05-07 01:03 40.63989 -73.76059 33205 ft 523 kts 47°
2026-05-07 01:04 40.66232 -73.72562 33157 ft 479 kts 33°
2026-05-07 01:04 40.68560 -73.69432 32442 ft 480 kts 35°
2026-05-07 01:04 40.70816 -73.66219 32082 ft 472 kts 37°
2026-05-07 01:04 40.72967 -73.63044 31819 ft 461 kts 37°
2026-05-07 01:05 40.75082 -73.59902 31434 ft 452 kts 37°
2026-05-07 01:05 40.77158 -73.56818 31115 ft 450 kts 37°
2026-05-07 01:05 40.79273 -73.53710 30755 ft 461 kts 38°
2026-05-07 01:05 40.81468 -73.50510 30379 ft 481 kts 38°
2026-05-07 01:06 40.83739 -73.47193 29959 ft 486 kts 39°
2026-05-07 01:06 40.85955 -73.43923 29526 ft 483 kts 39°
2026-05-07 01:06 40.88184 -73.40619 29077 ft 480 kts 39°
2026-05-07 01:06 40.90401 -73.37330 28643 ft 477 kts 39°
2026-05-07 01:07 40.92602 -73.34068 28221 ft 473 kts 39°
2026-05-07 01:07 40.94787 -73.30831 27818 ft 470 kts 39°
2026-05-07 01:07 40.96953 -73.27623 27413 ft 466 kts 39°
2026-05-07 01:07 40.99109 -73.24430 27012 ft 463 kts 39°
2026-05-07 01:08 41.01241 -73.21268 26620 ft 460 kts 39°
2026-05-07 01:08 41.03374 -73.18103 26221 ft 458 kts 39°
2026-05-07 01:08 41.05490 -73.14960 25832 ft 455 kts 39°
2026-05-07 01:08 41.07591 -73.11834 25436 ft 453 kts 39°
2026-05-07 01:09 41.09683 -73.08720 25017 ft 452 kts 39°
2026-05-07 01:09 41.11773 -73.05605 24623 ft 450 kts 39°
2026-05-07 01:09 41.13819 -73.02551 24251 ft 448 kts 39°
2026-05-07 01:09 41.15885 -72.99465 23835 ft 447 kts 39°
2026-05-07 01:10 41.17943 -72.96387 23475 ft 445 kts 39°
2026-05-07 01:10 41.19994 -72.93316 23018 ft 444 kts 40°
2026-05-07 01:10 41.21895 -72.90057 22639 ft 450 kts 54°
2026-05-07 01:10 41.22847 -72.87642 22769 ft 436 kts 59°
2026-05-07 01:11 41.24146 -72.84060 22574 ft 431 kts 59°
2026-05-07 01:11 41.25465 -72.80458 22563 ft 433 kts 59°
2026-05-07 01:11 41.26817 -72.76819 22359 ft 447 kts 58°
2026-05-07 01:11 41.28205 -72.73129 22358 ft 441 kts 58°
2026-05-07 01:12 41.29590 -72.69471 22136 ft 445 kts 58°
2026-05-07 01:12 41.30974 -72.65826 22173 ft 436 kts 58°
2026-05-07 01:12 41.32344 -72.62223 21945 ft 440 kts 58°
2026-05-07 01:12 41.33722 -72.58602 21954 ft 435 kts 58°
2026-05-07 01:13 41.35091 -72.54999 21773 ft 437 kts 59°
2026-05-07 01:13 41.36462 -72.51388 21688 ft 435 kts 59°
2026-05-07 01:13 41.37823 -72.47793 21598 ft 434 kts 59°
2026-05-07 01:13 41.39181 -72.44203 21492 ft 433 kts 59°
2026-05-07 01:14 41.40513 -72.40674 21403 ft 432 kts 59°
2026-05-07 01:14 41.41861 -72.37100 21294 ft 431 kts 59°
2026-05-07 01:14 41.43204 -72.33534 21196 ft 430 kts 59°
2026-05-07 01:14 41.44541 -72.29981 21099 ft 429 kts 59°
2026-05-07 01:15 41.45878 -72.26426 20987 ft 428 kts 60°
2026-05-07 01:15 41.47209 -72.22880 20903 ft 426 kts 60°
2026-05-07 01:15 41.48532 -72.19344 20740 ft 427 kts 60°
2026-05-07 01:15 41.49845 -72.15774 20390 ft 427 kts 61°
2026-05-07 01:16 41.51129 -72.12248 20107 ft 418 kts 62°
2026-05-07 01:16 41.52389 -72.08786 19824 ft 411 kts 62°
2026-05-07 01:16 41.53637 -72.05365 19542 ft 409 kts 62°
2026-05-07 01:16 41.54880 -72.01959 19268 ft 407 kts 62°
2026-05-07 01:17 41.56094 -71.98561 18979 ft 405 kts 65°
2026-05-07 01:17 41.57155 -71.95083 18704 ft 403 kts 69°
2026-05-07 01:17 41.58139 -71.91655 18447 ft 398 kts 69°
2026-05-07 01:17 41.59140 -71.88218 18180 ft 395 kts 69°
2026-05-07 01:18 41.60144 -71.84820 17863 ft 392 kts 69°
2026-05-07 01:18 41.61143 -71.81440 17573 ft 390 kts 69°
2026-05-07 01:18 41.62138 -71.78071 17291 ft 389 kts 69°
2026-05-07 01:18 41.63129 -71.74716 17021 ft 387 kts 69°
2026-05-07 01:19 41.64104 -71.71408 16960 ft 380 kts 69°
2026-05-07 01:19 41.65082 -71.68084 16650 ft 387 kts 69°
2026-05-07 01:19 41.66065 -71.64744 16403 ft 384 kts 69°
2026-05-07 01:19 41.67040 -71.61423 16146 ft 383 kts 69°
2026-05-07 01:20 41.68009 -71.58118 15886 ft 381 kts 69°
2026-05-07 01:20 41.68975 -71.54818 15626 ft 380 kts 69°
2026-05-07 01:20 41.69936 -71.51530 15365 ft 379 kts 69°
2026-05-07 01:20 41.70896 -71.48243 15105 ft 378 kts 69°
2026-05-07 01:21 41.71850 -71.44975 14851 ft 378 kts 69°
2026-05-07 01:21 41.72862 -71.41723 14572 ft 377 kts 63°
2026-05-07 01:21 41.74141 -71.38672 14334 ft 374 kts 57°
2026-05-07 01:21 41.75496 -71.35714 14087 ft 372 kts 57°
2026-05-07 01:22 41.76830 -71.32730 13816 ft 372 kts 58°
2026-05-07 01:22 41.78124 -71.29745 13555 ft 370 kts 59°
2026-05-07 01:22 41.79399 -71.26757 13269 ft 368 kts 59°
2026-05-07 01:22 41.80661 -71.23789 13003 ft 365 kts 59°
2026-05-07 01:23 41.81914 -71.20839 12734 ft 362 kts 59°
2026-05-07 01:23 41.83156 -71.17916 12485 ft 360 kts 59°
2026-05-07 01:23 41.84375 -71.15047 12242 ft 357 kts 59°
2026-05-07 01:23 41.85591 -71.12180 11987 ft 349 kts 59°
2026-05-07 01:24 41.86788 -71.09391 11778 ft 341 kts 58°
2026-05-07 01:24 41.87969 -71.06663 11581 ft 338 kts 58°
2026-05-07 01:24 41.89159 -71.03918 11399 ft 344 kts 58°
2026-05-07 01:24 41.90366 -71.01130 11196 ft 345 kts 58°
2026-05-07 01:25 41.91565 -70.98354 10966 ft 342 kts 58°
2026-05-07 01:25 41.92753 -70.95597 10771 ft 340 kts 58°
2026-05-07 01:25 41.93937 -70.92846 10574 ft 339 kts 58°
2026-05-07 01:25 41.95115 -70.90106 10361 ft 338 kts 58°
2026-05-07 01:26 41.96280 -70.87394 10146 ft 331 kts 58°
2026-05-07 01:26 41.97412 -70.84754 9930 ft 322 kts 58°
2026-05-07 01:26 41.98523 -70.82166 9745 ft 317 kts 58°
2026-05-07 01:26 41.99621 -70.79602 9535 ft 315 kts 58°
2026-05-07 01:27 42.00704 -70.77076 9354 ft 317 kts 58°
2026-05-07 01:27 42.01959 -70.74631 9074 ft 320 kts 46°
2026-05-07 01:27 42.03477 -70.72407 9014 ft 324 kts 43°
2026-05-07 01:27 42.05078 -70.70159 8745 ft 332 kts 43°
2026-05-07 01:28 42.06629 -70.67914 8520 ft 326 kts 44°
2026-05-07 01:28 42.08129 -70.65685 8403 ft 319 kts 45°
2026-05-07 01:28 42.09622 -70.63455 8103 ft 318 kts 44°
2026-05-07 01:28 42.11308 -70.61640 7906 ft 309 kts 19°
2026-05-07 01:29 42.13333 -70.60880 7755 ft 297 kts
2026-05-07 01:29 42.15390 -70.60340 7313 ft 307 kts
2026-05-07 01:29 42.17464 -70.59770 7074 ft 299 kts
2026-05-07 01:29 42.19481 -70.59206 6773 ft 293 kts
2026-05-07 01:30 42.21459 -70.58653 6532 ft 289 kts
2026-05-07 01:30 42.23434 -70.58104 6263 ft 290 kts
2026-05-07 01:30 42.25415 -70.57552 5979 ft 291 kts
2026-05-07 01:30 42.27401 -70.56998 5698 ft 291 kts
2026-05-07 01:31 42.29380 -70.56444 5419 ft 289 kts
2026-05-07 01:31 42.31341 -70.56014 5101 ft 281 kts 353°
2026-05-07 01:31 42.33113 -70.56658 5051 ft 253 kts 324°
2026-05-07 01:31 42.34570 -70.58005 5006 ft 257 kts 313°
2026-05-07 01:32 42.35877 -70.59667 5043 ft 259 kts 309°
2026-05-07 01:32 42.37134 -70.61361 4995 ft 257 kts 309°
2026-05-07 01:32 42.38387 -70.63054 5006 ft 254 kts 309°
2026-05-07 01:32 42.39638 -70.64734 4995 ft 252 kts 309°
2026-05-07 01:33 42.40885 -70.66399 5003 ft 251 kts 309°
2026-05-07 01:33 42.42138 -70.68065 4994 ft 254 kts 309°
2026-05-07 01:33 42.43409 -70.69752 5000 ft 258 kts 310°
2026-05-07 01:33 42.44695 -70.71451 5000 ft 258 kts 310°
2026-05-07 01:34 42.45979 -70.73146 4986 ft 257 kts 310°
2026-05-07 01:34 42.47257 -70.74830 4986 ft 255 kts 310°
2026-05-07 01:34 42.48520 -70.76497 5001 ft 251 kts 310°
2026-05-07 01:34 42.49752 -70.78120 4974 ft 243 kts 310°
2026-05-07 01:35 42.50943 -70.79689 4983 ft 234 kts 310°
2026-05-07 01:35 42.52208 -70.81041 4952 ft 236 kts 331°
2026-05-07 01:35 42.53811 -70.81375 5009 ft 241 kts 359°
2026-05-07 01:35 42.55499 -70.80817 5002 ft 250 kts 14°
2026-05-07 01:36 42.57074 -70.80014 5024 ft 238 kts 15°
2026-05-07 01:36 42.58580 -70.79229 4969 ft 225 kts 14°
2026-05-07 01:36 42.60040 -70.78488 5003 ft 224 kts 14°
2026-05-07 01:36 42.61502 -70.77757 4981 ft 223 kts 14°
2026-05-07 01:37 42.62948 -70.77044 4973 ft 221 kts 12°
2026-05-07 01:37 42.64446 -70.76792 4679 ft 212 kts 340°
2026-05-07 01:37 42.65635 -70.77668 4632 ft 187 kts 304°
2026-05-07 01:37 42.66084 -70.79203 4556 ft 171 kts 265°
2026-05-07 01:38 42.65652 -70.80668 4493 ft 174 kts 230°
2026-05-07 01:38 42.64726 -70.81773 4463 ft 182 kts 225°
2026-05-07 01:38 42.63781 -70.82923 4415 ft 181 kts 226°
2026-05-07 01:38 42.62855 -70.84043 4326 ft 172 kts 226°
2026-05-07 01:39 42.61977 -70.85095 4200 ft 164 kts 226°
2026-05-07 01:39 42.61119 -70.86122 4123 ft 166 kts 226°
2026-05-07 01:39 42.60253 -70.87156 3981 ft 164 kts 226°
2026-05-07 01:39 42.59382 -70.88147 3830 ft 164 kts 218°
2026-05-07 01:40 42.58346 -70.88813 3743 ft 162 kts 210°
2026-05-07 01:40 42.57333 -70.89478 3569 ft 161 kts 213°
2026-05-07 01:40 42.56350 -70.90159 3451 ft 157 kts 214°
2026-05-07 01:40 42.55370 -70.90845 3341 ft 162 kts 213°
2026-05-07 01:41 42.54347 -70.91565 3193 ft 168 kts 213°
2026-05-07 01:41 42.53308 -70.92280 3051 ft 166 kts 211°
2026-05-07 01:41 42.52254 -70.92860 2983 ft 162 kts 207°
2026-05-07 01:41 42.51195 -70.93389 2885 ft 164 kts 206°
2026-05-07 01:42 42.50118 -70.93912 2700 ft 161 kts 207°
2026-05-07 01:42 42.49108 -70.94398 2459 ft 148 kts 207°
2026-05-07 01:42 42.48166 -70.94855 2253 ft 137 kts 208°
2026-05-07 01:42 42.47299 -70.95276 2110 ft 134 kts 208°
2026-05-07 01:43 42.46414 -70.95708 1963 ft 135 kts 208°
2026-05-07 01:43 42.45523 -70.96139 1745 ft 135 kts 208°
2026-05-07 01:43 42.44650 -70.96562 1564 ft 132 kts 208°
2026-05-07 01:43 42.43802 -70.96972 1406 ft 129 kts 207°
2026-05-07 01:44 42.42959 -70.97382 1247 ft 129 kts 206°
2026-05-07 01:44 42.42093 -70.97801 1060 ft 133 kts 205°
2026-05-07 01:44 42.41222 -70.98222 869 ft 135 kts 204°
2026-05-07 01:44 42.40342 -70.98649 686 ft 133 kts 202°
2026-05-07 01:45 42.39506 -70.99054 526 ft 125 kts 202°
2026-05-07 01:45 42.38670 -70.99451 352 ft 129 kts 200°
2026-05-07 01:45 42.37813 -70.99871 153 ft 133 kts 200°
2026-05-07 01:45 42.36957 -71.00286 37 ft 123 kts 199°
2026-05-07 01:46 42.36249 -71.00623 28 ft 88 kts 200°
2026-05-07 01:46 42.35813 -71.00833 20 ft 45 kts 200°